Weather in Pionerskiy

Russia / Sverdlovsk Oblast     57°06′17″N   63°45′01″E
temp.,
°C
wind,
m/s
gust,
m/s
humid.,
%
clouds,
%
prec.,
mm/h
press.,
hPa
HPBL,
m
4 july, mon
mon423:00+13nne499789 1.9 1007483
02:00+11ne51096100 0.1 1007558
05:00+10nne51096100 0.2 1008547
08:00+12ne611775 0.0 1009763
11:00+15nne68545 0.0 10081257
14:00+14nne7758100 0.0 10081591
17:00+12nne587025 0.1 10091142
20:00+10nne5980100 0.2 1009832
5 july, tue
tue523:00+9nne5118289 0.2 1009692
02:00+9nne51182100 0.0 1009634
05:00+10n51175100 0.1 1009668
08:00+10n51174100 0.0 1010574
11:00+14n575860 0.0 10101123
14:00+17n565049 0.0 10101752
17:00+18n464526 0.0 10092033
20:00+15nnw2567100 0.0 1010130
6 july, wed
wed623:00+13n276691 0.0 1010147
02:00+9n23849 0.0 101143
05:00+8nnw238474 0.0 101261
08:00+14n246285 0.0 1012331
11:00+18n3448100 0.0 10121381
14:00+17n335889 0.0 1013975
17:00+19nnw225277 0.0 10131151
20:00+17nne22754 0.1 101347
7 july, thu
thu723:00+12nnw22910 0.1 101410
02:00+10nw119377 0.0 101511
05:00+10nnw239414 0.0 101652
08:00+17nne23705 0.0 1017331
11:00+21nne235631 0.0 10171216
14:00+22ne226069 0.1 10171252
17:00+23nne225538 0.1 10161390
20:00+20nne22753 0.0 101722
8 july, fri
fri823:00+16ene11845 0.0 101711
02:00+14wsw119037 0.0 101710
05:00+14w11900 0.0 101811
08:00+20w12700 0.0 1018274
11:00+24w22520 0.0 10171408
14:00+25wnw22450 0.0 10161883
17:00+26wnw124715 0.0 10151703
20:00+22ssw2374100 0.0 101545